COSMOS 2251 DEB, 33785

Orbit data source: Space-Track

COSMOS 2251 DEB, 33785 is space debris in LEO originally from a launch on Wed, 16 Jun 1993 UTC launched from the Plesetsk Missile And Space Complex (PKMTR). The debris from Iridium 33, an American commercial communications satellite, has been tracked extensively since its accidental collision with the defunct Russian satellite Cosmos 2251 in 2009. This event, occurring at high speed in low Earth orbit (LEO), generated thousands of pieces of space debris, significantly increasing the risk of further collisions. The Iridium 33 debris cloud has impacted space traffic management and orbital debris mitigation strategies, making it a subject of ongoing study in space situational awareness.

Loading next visibility...
Identifier
33785, 1993-036AA
Orbit
LEO
Country
Flag of CISCIS
Related business
Manufacturer
Unknown
Mission
Spacecraft
Bus & Motor
Unknown
Mass
Unknown
Launch date (UTC)
1993-06-16 (33 years ago)
Launch vehicle
Unknown
Launch site
Plesetsk Missile And Space Complex (PKMTR)
Object type
Payload
Rocket body
Debris
Shape & HBR
Unknown shape, 0.1 m
Radar Cross Section
Small (<0.1 m²)

Expand to show TLE details & history
Last TLE update: 8 hours ago

TLE from 8 hours ago
0 COSMOS 2251 DEB
1 33785U 93036AA  26036.90525470  .00015436  00000-0  24420-2 0  9999
2 33785  73.8670 311.6432 0021815 244.1689 196.1016 14.72132029893184
Epoch: 2026-02-05T21:43Z
TLE epoch observation values (Epoch: 2026-02-05T21:43:34.006Z)
Latitude
71.2804°
Longitude
-92.19399°
Altitude
680.944 km
Speed
7.515 km/s
True Right ascension
00h 38m 59s
True Declination
71° 10' 28"
Sunlit
Object was in daylight at epoch
Visualization orbit readout
Latitude
Unknown
Longitude
Unknown
Altitude
Unknown
Speed
Unknown
Apparent Right ascension
Unknown
Apparent Declination
Unknown
Sunlit
N/A
Visualization observer readout
Local Sidereal Time
08:03:23
Azimuth
Unknown
Elevation
Unknown
Doppler factor
Unknown
Orbital elements
Apogee altitude
667.205 km
Perigee altitude
636.533 km
Semi-major axis
7,030.006 km
Eccentricity
0.00218
Inclination
73.867°
RAAN
311.6432°
Arg. of periapsis
244.1689°
True anomaly
196.03245°
Mean anomaly
196.1016°
Eccentric anomaly
196.06701°
Mean motion
3.68222 °/min
Orbital period
97.77 mins
BSTAR
0.002442
Loading maneuver chart data...
Computing Atmospheric mass density...

Documentation

Showing up to 5 results
|